Hourly Data Report for September 19, 2017

All times are specified in Local Standard Time (LST). Add 1 hour to adjust for Daylight Saving Time where and when it is observed.

ARVIAT A
NUNAVUT

61°05'38.000" N
94°04'18.000" W
10.40 m
2300427
71174
YEK

Related Data

No related data is available for this station

Download Data

Hourly Data (September 2017)
Hourly Data Report for September 19, 2017
Temp Definition
°C
Dew Point Temp Definition
°C
Rel Hum Definition
%
Wind Dir Definition
10's deg

Wind Spd Definition
km/h
Visibility Definition
km
Stn Press Definition
kPa
Hmdx Definition


Wind Chill Definition


Weather Definition


TIME
00:00 Legend Double Dagger 6.3 5.0 91 4 4 16.1 101.24     LegendNANA
01:00 Legend Double Dagger 6.2 4.9 91 4 8 16.1 101.27     LegendNANA
02:00 Legend Double Dagger 6.0 5.0 93 5 4 16.1 101.29     LegendNANA
03:00 Legend Double Dagger 6.4 5.5 94 2 4 16.1 101.31     LegendNANA
04:00 Legend Double Dagger 6.2 5.5 95 4 9 16.1 101.33     LegendNANA
05:00 Legend Double Dagger 6.0 5.1 94 4 11 16.1 101.36     LegendNANA
06:00 Legend Double Dagger 5.4 5.0 97 1 9 16.1 101.38     LegendNANA
07:00 Legend Double Dagger 5.7 3.8 87 5 8 16.1 101.43     LegendNANA
08:00 Legend Double Dagger 6.1 4.9 92 4 9 16.1 101.47     LegendNANA
09:00 Legend Double Dagger 6.3 3.3 81 4 5 16.1 101.50     LegendNANA
10:00 Legend Double Dagger 5.6 4.6 93 5 18 12.9 101.56     Rain
11:00 Legend Double Dagger 6.2 3.5 83 29 5 16.1 101.60     LegendNANA
12:00 Legend Double Dagger 7.5 3.1 74 7 8 16.1 101.62     LegendNANA
13:00 Legend Double Dagger 7.3 3.3 76 12 11 16.1 101.63     LegendNANA
14:00 Legend Double Dagger 7.2 4.0 80 11 11 16.1 101.69     LegendNANA
15:00 Legend Double Dagger 7.3 3.4 76 10 9 16.1 101.66     LegendNANA
16:00 Legend Double Dagger 7.3 3.2 75 14 11 16.1 101.72     LegendNANA
17:00 Legend Double Dagger 7.0 2.9 75 12 11 16.1 101.73     LegendNANA
18:00 Legend Double Dagger 7.0 2.9 75 10 13 16.1 101.76     LegendNANA
19:00 Legend Double Dagger 6.9 2.6 74 8 11 16.1 101.76     LegendNANA
20:00 Legend Double Dagger 6.8 2.4 74 2 9 16.1 101.84     LegendNANA
21:00 Legend Double Dagger 6.5 2.6 76 10 9 16.1 101.90     LegendNANA
22:00 Legend Double Dagger 4.8 2.0 82 7 9 16.1 101.91     LegendNANA
23:00 Legend Double Dagger 4.6 2.0 83 11 8 16.1 101.93     LegendNANA

Notes on Data Quality.

Legend

  • E = Estimated
  • M = Missing
  • NA = Not Available
  • ‡ = Partner data that is not subject to review by the National Climate Archives
Date modified: